Flag for Belgium Weather past 2 weeks in Eupen, Belgium

Now
48 °F

Clear.


Feels Like: 46 °F
Forecast: 44 / 59 °F
Wind: 5 mph from Southeast

Location: Spa / La Sauveniere

Current Time: Sep 24, 2014 at 1:07:08 AM

Latest Report: Sep 24, 2014 at 12:00 AM


Visibility: 8 mi

Pressure: 30.09 "Hg

Humidity: 84%

Dew point: 43 °F

Location of EupenLocation

Historic Weather in Eupen — Graph

°F

Eupen temperature yesterday

Maximum temperature yesterday: 56 °F (at 3:00 PM)
Minimum temperature yesterday: 41 °F (at 8:00 AM)
Average temperature yesterday: 49 °F

Past Weeks' High & Low Weather Summary

 TemperatureHumidityPressure
High73 °F (Sep 17, 5:00 PM)100% (Sep 11, 7:00 AM)30.27 "Hg (Sep 11, 7:00 AM)
Low41 °F (Sep 23, 8:00 AM)51% (Sep 17, 4:00 PM)29.80 "Hg (Sep 18, 5:00 PM)
Average57 °F84%30.07 "Hg
* Reported Sep 8 11:00 PM — Sep 23 11:00 PM, Eupen, Weather by CustomWeather, © 2014

Note: Actual official high and low records may vary slightly from our data, if they occured in-between our weather recording intervals... More about our weather records

Advertising

Eupen weather history for previous 24 hours

 ConditionsComfort  
Time TempWeatherWind HumidityBarometerVisibility
11:00 PM
Sep 23
49 °FClear.3 mph80%30.09 "Hg11 mi
10:00 PM49 °FClear.3 mph79%30.09 "Hg9 mi
9:00 PM48 °FClear.2 mph82%30.11 "Hg7 mi
8:00 PM49 °FClear.1 mph83%30.12 "Hg6 mi
7:00 PM52 °FSunny.1 mph76%30.11 "Hg8 mi
6:00 PM56 °FSunny.1 mph63%30.11 "Hg11 mi
5:00 PM56 °FPartly sunny.1 mph60%30.12 "Hg12 mi
4:00 PM55 °FSunny.1 mph61%30.14 "Hg13 mi
3:00 PM56 °FSunny.No wind60%30.15 "Hg17 mi
2:00 PM53 °FScattered clouds.1 mph65%30.18 "Hg12 mi
1:00 PM53 °FOvercast.N/A63%30.19 "Hg12 mi
12:00 PM54 °FSunny.2 mph62%30.19 "Hg10 mi
11:00 AM51 °FPassing clouds.2 mph64%30.21 "Hg9 mi
10:00 AM50 °FSunny.1 mph77%30.22 "Hg9 mi
9:00 AM46 °FOvercast.2 mph89%30.22 "HgN/A
8:00 AM41 °FFog.2 mph96%30.24 "Hg2 mi
7:00 AM41 °FFog.1 mph94%30.24 "Hg2 mi
6:00 AM42 °FFog.1 mph95%30.23 "Hg2 mi
5:00 AM42 °FFog.1 mph94%30.23 "Hg2 mi
4:00 AM43 °FFog.1 mph95%30.22 "Hg2 mi
3:00 AM44 °FFog.1 mph94%30.24 "Hg2 mi
2:00 AM46 °FFog.1 mph92%30.24 "Hg3 mi
1:00 AM45 °FFog.2 mph94%30.24 "Hg2 mi
Weather by CustomWeather, © 2014

See weather overviewHow to use our weather pages